Regional Weather Roundup
Issued by NWS Charleston, WV

Home | Current Version | Previous Version | Graphics & Text | Print | Product List | Glossary On
Versions: 1 2 3 4 5 6 7 8 9 10 11 12 13 14 15 16 17 18 19 20 21 22 23 24 25 26 27
336
ASUS41 KRLX 211210
RWRRLX
West Virginia Regional Weather Roundup
National Weather Service Charleston WV
800 AM EDT THU MAY 21 2015

Note: "fair" indicates few or no clouds below 12,000 feet with no
significant weather and/or obstructions to visibility.

WVZ003-211300-
Northern Panhandle of West Virginia

CITY           SKY/WX    TMP DP  RH WIND       PRES   REMARKS
WHEELING       CLOUDY    45  41  87 NE9       29.99F
$$

WVZ009-211300-
Northwest West Virginia

CITY           SKY/WX    TMP DP  RH WIND       PRES   REMARKS
PARKERSBURG    CLOUDY    49  45  86 N6        30.00R
$$

WVZ006-211300-
Western West Virginia

CITY           SKY/WX    TMP DP  RH WIND       PRES   REMARKS
HUNTINGTON     LGT RAIN  50  49  96 N6        29.96R FOG
$$

WVZ015-211300-
West Central West Virginia

CITY           SKY/WX    TMP DP  RH WIND       PRES   REMARKS
CHARLESTON     LGT RAIN  53  51  93 N6        29.94R VSB 1
$$

WVZ022-031-211300-
North Central West Virginia

CITY           SKY/WX    TMP DP  RH WIND       PRES   REMARKS
CLARKSBURG     LGT RAIN  47  46  97 NE8       29.97R FOG
MORGANTOWN     LGT RAIN  47  44  90 N7        29.99R FOG
$$

WVZ025-035-042-045-211300-
Southern West Virginia

CITY           SKY/WX    TMP DP  RH WIND       PRES   REMARKS
BECKLEY        LGT RAIN  56  51  84 SE3       29.93R
LOGAN          FOG       54  54 100 W5        29.90R VSB 1/2
BLUEFIELD      RAIN      57  52  83 CALM      29.95R
LEWISBURG      DRIZZLE   56  49  78 CALM      29.94S
$$

WVZ047-211300-
Northern Mountains of West Virginia

CITY           SKY/WX    TMP DP  RH WIND       PRES   REMARKS
ELKINS         LGT RAIN  51  49  92 CALM      29.95R FOG
$$

WVZ052-211300-
Eastern Panhandle of West Virginia

CITY           SKY/WX    TMP DP  RH WIND       PRES   REMARKS
MARTINSBURG    CLOUDY    52  48  86 NE6       30.00R
PETERSBURG     CLOUDY    50  44  80 NW3       29.99R
$$



USA.gov is the U.S. government's official web portal to all federal, state and local government web resources and services.